Terug naar catalogus

STARLINK-36866

ActiefCommunicatieSSO
NORAD 67895·PAYLOAD·🇺🇸 United States

Gelanceerd Feb 21, 2026 vanaf Vandenberg Space Force Base

Loading…

Volgende Passages (komende 24 uur)

TLE

VersSource: CelesTrak SupGP

Epoch: Sep 15, 2026, 02:37 UTC

1 67895C 26035S   26258.10951389  .00071959  00000+0  22343-2 0  2584
2 67895  97.2851 190.0077 0001796  99.6608 313.1304 15.33394782    15

Volg STARLINK-36866 in realtime met AllMySat

Download on the App Store